Location: Moscow Pond
(43.6842°N, 73.2366°W)
Time: 21:17:26
(UTC+00:00)

SMAP - Pass Details

Date: 08 November 2025
Orbit: 681 x 683 km, 98.1° (Epoch: 05 December)

Event Time Altitude Azimuth Distance (km) Brightness Sun altitude
Rises 10:48:10 0° 19° (NNE) 3,054 6.5 -9.4°
Reaches altitude 10° 10:50:30 10° 25° (NNE) 2,134 5.8 -9.0°
Maximum altitude 10:55:00 47° 99° (E) 909 4.3 -8.2°
Drops below altitude 10° 10:59:27 10° 173° (S) 2,117 5.9 -7.5°
Sets 11:01:45 0° 179° (S) 3,027 6.6 -7.1°
